Previsão horária em Abasár

Hoje, 18 Maio, Terça-feira

Tempo Temperatura Precipitação Vento Pressão Humidade
00:00 +9°C° 1.3 mm 8 m/s 731 mmHg 92%
01:00 +9°C° 1.3 mm 8 m/s 731 mmHg 92%
02:00 +7°C° 1.4 mm 8 m/s 732 mmHg 92%
03:00 +8°C° 1.4 mm 7 m/s 732 mmHg 92%
04:00 +8°C° 1.4 mm 7 m/s 733 mmHg 93%
05:00 +8°C° 0.5 mm 7 m/s 733 mmHg 92%
06:00 +8°C° 0.5 mm 7 m/s 734 mmHg 92%
07:00 +9°C° 0.5 mm 7 m/s 735 mmHg 91%
08:00 +9°C° 0.1 mm 7 m/s 735 mmHg 87%
09:00 +10°C° 0.1 mm 7 m/s 735 mmHg 83%
10:00 +11°C° 0.1 mm 7 m/s 736 mmHg 79%
11:00 +12°C° 0 mm 7 m/s 736 mmHg 74%
12:00 +15°C° 0 mm 7 m/s 736 mmHg 68%
13:00 +16°C° 0 mm 8 m/s 736 mmHg 63%
14:00 +16°C° 0 mm 7 m/s 736 mmHg 64%
15:00 +16°C° 0 mm 6 m/s 736 mmHg 65%
16:00 +16°C° 0 mm 6 m/s 736 mmHg 66%
17:00 +14°C° 0 mm 5 m/s 736 mmHg 70%
18:00 +13°C° 0 mm 4 m/s 737 mmHg 74%
19:00 +12°C° 0 mm 3 m/s 737 mmHg 78%
20:00 +11°C° 0 mm 3 m/s 737 mmHg 82%
21:00 +10°C° 0 mm 3 m/s 737 mmHg 86%
22:00 +9°C° 0 mm 2 m/s 737 mmHg 89%
23:00 +8°C° 0 mm 2 m/s 737 mmHg 89%

Amanhã, 19 Maio, Quarta-feira

Tempo Temperatura Precipitação Vento Pressão Humidade
00:00 +8°C° 0 mm 2 m/s 737 mmHg 89%
01:00 +8°C° 0 mm 2 m/s 737 mmHg 89%
02:00 +7°C° 0 mm 2 m/s 737 mmHg 89%
03:00 +7°C° 0 mm 2 m/s 737 mmHg 89%
04:00 +7°C° 0 mm 2 m/s 737 mmHg 89%
05:00 +9°C° 0 mm 1 m/s 737 mmHg 85%
06:00 +11°C° 0 mm 1 m/s 738 mmHg 81%
07:00 +12°C° 0 mm 1 m/s 738 mmHg 78%
08:00 +13°C° 0.1 mm 1 m/s 738 mmHg 75%
09:00 +14°C° 0.1 mm 2 m/s 738 mmHg 73%
10:00 +15°C° 0.1 mm 2 m/s 738 mmHg 71%
11:00 +15°C° 0.5 mm 2 m/s 737 mmHg 74%
12:00 +15°C° 0.5 mm 2 m/s 737 mmHg 76%
13:00 +15°C° 0.5 mm 2 m/s 737 mmHg 79%
14:00 +14°C° 0.9 mm 2 m/s 737 mmHg 84%
15:00 +13°C° 0.9 mm 1 m/s 737 mmHg 90%
16:00 +12°C° 0.9 mm 1 m/s 737 mmHg 95%
17:00 +11°C° 1.1 mm 1 m/s 737 mmHg 95%
18:00 +11°C° 1.1 mm 1 m/s 737 mmHg 96%
19:00 +11°C° 1.1 mm 1 m/s 737 mmHg 96%
20:00 +11°C° 1.3 mm 1 m/s 737 mmHg 97%
21:00 +11°C° 1.3 mm 1 m/s 737 mmHg 97%
22:00 +9°C° 1.3 mm 2 m/s 737 mmHg 97%
23:00 +9°C° 1.7 mm 2 m/s 736 mmHg 97%

Depois de amanhã, 20 Maio, Quinta-feira

Tempo Temperatura Precipitação Vento Pressão Humidade
00:00 +9°C° 1.7 mm 2 m/s 736 mmHg 97%
01:00 +9°C° 1.7 mm 2 m/s 736 mmHg 97%
02:00 +9°C° 1.3 mm 2 m/s 736 mmHg 97%
03:00 +9°C° 1.3 mm 3 m/s 736 mmHg 96%
04:00 +9°C° 1.3 mm 3 m/s 736 mmHg 96%
05:00 +9°C° 2.3 mm 3 m/s 736 mmHg 96%
06:00 +8°C° 2.3 mm 4 m/s 736 mmHg 95%
07:00 +8°C° 2.3 mm 4 m/s 736 mmHg 95%
08:00 +8°C° 2.1 mm 4 m/s 737 mmHg 94%
09:00 +8°C° 2.1 mm 5 m/s 737 mmHg 94%
10:00 +8°C° 2.1 mm 5 m/s 737 mmHg 93%
11:00 +10°C° 1.3 mm 4 m/s 738 mmHg 93%
12:00 +10°C° 1.3 mm 4 m/s 738 mmHg 92%
13:00 +10°C° 1.3 mm 4 m/s 738 mmHg 91%
14:00 +11°C° 0.8 mm 4 m/s 739 mmHg 90%
15:00 +11°C° 0.8 mm 4 m/s 739 mmHg 89%
16:00 +11°C° 0.8 mm 4 m/s 739 mmHg 88%
17:00 +11°C° 0.2 mm 3 m/s 740 mmHg 88%
18:00 +10°C° 0.2 mm 2 m/s 740 mmHg 88%
19:00 +10°C° 0.2 mm 2 m/s 741 mmHg 88%
20:00 +10°C° 0 mm 2 m/s 741 mmHg 88%
21:00 +9°C° 0 mm 2 m/s 741 mmHg 87%
22:00 +8°C° 0 mm 2 m/s 741 mmHg 87%
23:00 +8°C° 0 mm 2 m/s 742 mmHg 87%

21 Maio, Sexta-feira

Tempo Temperatura Precipitação Vento Pressão Humidade
00:00 +7°C° 0 mm 2 m/s 742 mmHg 88%
01:00 +7°C° 0 mm 2 m/s 742 mmHg 88%
02:00 +7°C° 0 mm 2 m/s 742 mmHg 88%
03:00 +6°C° 0 mm 2 m/s 742 mmHg 89%
04:00 +6°C° 0 mm 2 m/s 742 mmHg 89%
05:00 +8°C° 0 mm 2 m/s 743 mmHg 85%
06:00 +10°C° 0 mm 2 m/s 743 mmHg 82%
07:00 +12°C° 0 mm 2 m/s 743 mmHg 78%
08:00 +14°C° 0 mm 2 m/s 743 mmHg 71%
09:00 +16°C° 0 mm 2 m/s 743 mmHg 63%
10:00 +17°C° 0 mm 2 m/s 744 mmHg 56%
11:00 +17°C° 0 mm 2 m/s 743 mmHg 55%
12:00 +18°C° 0 mm 2 m/s 743 mmHg 54%
13:00 +18°C° 0 mm 2 m/s 743 mmHg 53%
14:00 +18°C° 0 mm 2 m/s 743 mmHg 54%
15:00 +19°C° 0 mm 1 m/s 742 mmHg 55%
16:00 +19°C° 0 mm 1 m/s 742 mmHg 56%
17:00 +18°C° 0 mm 1 m/s 742 mmHg 64%
18:00 +15°C° 0 mm 1 m/s 742 mmHg 72%
19:00 +13°C° 0 mm 1 m/s 742 mmHg 80%
20:00 +12°C° 0 mm 1 m/s 742 mmHg 82%
21:00 +12°C° 0 mm 1 m/s 742 mmHg 84%
22:00 +11°C° 0 mm 1 m/s 742 mmHg 86%
23:00 +10°C° 0 mm 1 m/s 742 mmHg 87%

22 Maio, Sábado

Tempo Temperatura Precipitação Vento Pressão Humidade
00:00 +10°C° 0 mm 1 m/s 742 mmHg 88%
01:00 +10°C° 0 mm 1 m/s 742 mmHg 89%
02:00 +9°C° 0 mm 1 m/s 741 mmHg 90%
03:00 +9°C° 0 mm 1 m/s 741 mmHg 90%
04:00 +8°C° 0 mm 1 m/s 741 mmHg 91%
05:00 +10°C° 0 mm 1 m/s 741 mmHg 87%
06:00 +12°C° 0 mm 2 m/s 741 mmHg 83%
07:00 +13°C° 0 mm 2 m/s 741 mmHg 79%
08:00 +14°C° 0 mm 3 m/s 741 mmHg 74%
09:00 +16°C° 0 mm 3 m/s 741 mmHg 69%
10:00 +18°C° 0 mm 4 m/s 741 mmHg 63%
11:00 +18°C° 0 mm 4 m/s 741 mmHg 61%
12:00 +19°C° 0 mm 4 m/s 741 mmHg 59%
13:00 +20°C° 0 mm 5 m/s 740 mmHg 57%
14:00 +20°C° 0 mm 4 m/s 740 mmHg 60%
15:00 +19°C° 0 mm 4 m/s 740 mmHg 63%
16:00 +19°C° 0 mm 4 m/s 739 mmHg 66%
17:00 +18°C° 0.1 mm 3 m/s 739 mmHg 71%
18:00 +17°C° 0.1 mm 3 m/s 739 mmHg 75%
19:00 +16°C° 0.1 mm 2 m/s 739 mmHg 79%
20:00 +16°C° 0 mm 2 m/s 739 mmHg 80%
21:00 +15°C° 0 mm 2 m/s 739 mmHg 81%
22:00 +15°C° 0 mm 2 m/s 739 mmHg 82%
23:00 +14°C° 0 mm 2 m/s 739 mmHg 86%

23 Maio, Domingo

Tempo Temperatura Precipitação Vento Pressão Humidade
00:00 +13°C° 0 mm 3 m/s 739 mmHg 89%
01:00 +12°C° 0 mm 3 m/s 739 mmHg 92%
02:00 +12°C° 0 mm 3 m/s 740 mmHg 89%
03:00 +11°C° 0 mm 3 m/s 740 mmHg 86%
04:00 +11°C° 0 mm 3 m/s 740 mmHg 83%
05:00 +12°C° 0 mm 3 m/s 741 mmHg 78%
06:00 +13°C° 0 mm 3 m/s 741 mmHg 73%
07:00 +14°C° 0 mm 3 m/s 741 mmHg 69%
08:00 +16°C° 0 mm 2 m/s 742 mmHg 64%
09:00 +17°C° 0 mm 2 m/s 742 mmHg 59%
10:00 +18°C° 0 mm 2 m/s 742 mmHg 54%
11:00 +19°C° 0 mm 2 m/s 742 mmHg 53%
12:00 +19°C° 0 mm 2 m/s 742 mmHg 52%
13:00 +20°C° 0 mm 2 m/s 742 mmHg 50%
14:00 +20°C° 0 mm 2 m/s 741 mmHg 53%
15:00 +20°C° 0 mm 2 m/s 741 mmHg 55%
16:00 +20°C° 0 mm 2 m/s 741 mmHg 57%
17:00 +19°C° 0 mm 2 m/s 740 mmHg 64%
18:00 +18°C° 0 mm 2 m/s 740 mmHg 71%
19:00 +16°C° 0 mm 2 m/s 740 mmHg 78%
20:00 +16°C° 0.1 mm 2 m/s 739 mmHg 80%
21:00 +15°C° 0.1 mm 2 m/s 739 mmHg 81%
22:00 +15°C° 0.1 mm 2 m/s 738 mmHg 83%
23:00 +15°C° 1.6 mm 2 m/s 738 mmHg 87%
Mostrar mais

Necessitamos do seu Consentimento

A Meteoprog e os seus Fornecedores de Serviços podem armazenar e aceder a dados pessoais como cookies, identificadores do dispositivo ou outras tecnologias semelhantes existentes no seu dispositivo e processar estes dados para personalizar conteúdos e anúncios, assim como funcionalidades nas redes sociais e análise de tráfego.

  • Armazenar e/ou aceder a informações no seu dispositivo

    Os cookies, identificadores do dispositivo ou outras informações podem ser armazenados ou acedidos no seu dispositivo, para os fins acima indicados.

  • Anúncios e conteúdos personalizados, medição de anúncios e conteúdos, dados sobre o público-alvo e desenvolvimento de produtos

    Os anúncios e os conteúdos podem ser personalizados com base num perfil. Podem ser adicionados dados adicionais para uma maior personalização dos anúncios e dos conteúdos. A eficácia dos anúncios e dos conteúdos pode ser medida. Podem ser obtidas informações sobre o público que visualizou os anúncios e os conteúdos. Estes dados podem ser usados para desenvolver ou melhorar sistemas, softwares ou a experiência do utilizador.

Ao clicar em "Eu concordo”, permitirá o uso de cookies, identificadores do dispositivo e web beacons mencionados ou outras tecnologias semelhantes. As configurações do navegador do seu dispositivo podem ser alteradas.

Para certos fins, podem ser invocados interesses legítimos ao invés de consentimento. Pode ler mais informação sobre este assunto na nossa Política de Privacidade e Cookies.